• In Hungary
  • List of Countries
  • For 7 days
  • Water Temperature
  • Satellite Maps
  • Weather Map
  • News
  • Weather Widgets
  • user-avatar
    Login

    Hourly Weather Ust-Vym

    Today, 28 May, Monday

    Time Temperature Precipitation Wind Pressure Humidity
    00:00 +3°C° 0 mm 4 mps 753 mmHg 60%
    01:00 +1°C° 0 mm 4 mps 754 mmHg 62%
    02:00 +1°C° 0 mm 4 mps 754 mmHg 64%
    03:00 +1°C° 0 mm 4 mps 754 mmHg 66%
    04:00 +3°C° 0 mm 4 mps 754 mmHg 64%
    05:00 +3°C° 0 mm 5 mps 755 mmHg 62%
    06:00 +3°C° 0 mm 5 mps 755 mmHg 59%
    07:00 +4°C° 0 mm 6 mps 755 mmHg 57%
    08:00 +4°C° 0 mm 6 mps 756 mmHg 55%
    09:00 +5°C° 0 mm 6 mps 756 mmHg 53%
    10:00 +5°C° 0 mm 6 mps 757 mmHg 51%
    11:00 +5°C° 0 mm 6 mps 757 mmHg 49%
    12:00 +7°C° 0 mm 6 mps 757 mmHg 46%
    13:00 +7°C° 0 mm 5 mps 757 mmHg 44%
    14:00 +8°C° 0 mm 5 mps 758 mmHg 43%
    15:00 +8°C° 0 mm 5 mps 758 mmHg 41%
    16:00 +8°C° 0 mm 5 mps 758 mmHg 40%
    17:00 +8°C° 0 mm 4 mps 757 mmHg 40%
    18:00 +8°C° 0 mm 4 mps 757 mmHg 39%
    19:00 +8°C° 0 mm 3 mps 757 mmHg 45%
    20:00 +6°C° 0 mm 2 mps 757 mmHg 51%
    21:00 +5°C° 0 mm 2 mps 757 mmHg 57%
    22:00 +5°C° 0.3 mm 2 mps 756 mmHg 66%
    23:00 +5°C° 0.3 mm 2 mps 755 mmHg 74%

    Tomorrow, 29 May, Tuesday

    Time Temperature Precipitation Wind Pressure Humidity
    00:00 +4°C° 0.3 mm 2 mps 755 mmHg 82%
    01:00 +5°C° 0.5 mm 2 mps 754 mmHg 86%
    02:00 +4°C° 0.5 mm 3 mps 754 mmHg 89%
    03:00 +4°C° 0.5 mm 3 mps 753 mmHg 92%
    04:00 +5°C° 0.5 mm 3 mps 752 mmHg 92%
    05:00 +5°C° 0.5 mm 3 mps 752 mmHg 92%
    06:00 +7°C° 0.5 mm 3 mps 751 mmHg 92%
    07:00 +7°C° 0.1 mm 3 mps 751 mmHg 89%
    08:00 +8°C° 0.1 mm 3 mps 751 mmHg 86%
    09:00 +7°C° 0.1 mm 4 mps 751 mmHg 83%
    10:00 +8°C° 0 mm 4 mps 751 mmHg 72%
    11:00 +11°C° 0 mm 4 mps 751 mmHg 62%
    12:00 +12°C° 0 mm 4 mps 751 mmHg 52%
    13:00 +13°C° 0 mm 4 mps 751 mmHg 47%
    14:00 +14°C° 0 mm 3 mps 750 mmHg 42%
    15:00 +14°C° 0 mm 3 mps 750 mmHg 36%
    16:00 +14°C° 0 mm 3 mps 750 mmHg 39%
    17:00 +15°C° 0 mm 2 mps 749 mmHg 42%
    18:00 +14°C° 0 mm 1 mps 749 mmHg 44%
    19:00 +13°C° 0.1 mm 1 mps 748 mmHg 52%
    20:00 +12°C° 0.1 mm 1 mps 747 mmHg 60%
    21:00 +11°C° 0.1 mm 1 mps 747 mmHg 68%
    22:00 +10°C° 0.2 mm 1 mps 746 mmHg 74%
    23:00 +10°C° 0.2 mm 1 mps 745 mmHg 81%

    Day after tomorrow, 30 May, Wednesday

    Time Temperature Precipitation Wind Pressure Humidity
    00:00 +9°C° 0.2 mm 1 mps 744 mmHg 87%
    01:00 +9°C° 0.1 mm 2 mps 743 mmHg 90%
    02:00 +9°C° 0.1 mm 2 mps 742 mmHg 93%
    03:00 +9°C° 0.1 mm 2 mps 741 mmHg 95%
    04:00 +9°C° 0.4 mm 3 mps 739 mmHg 95%
    05:00 +10°C° 0.4 mm 3 mps 738 mmHg 95%
    06:00 +10°C° 0.4 mm 3 mps 737 mmHg 94%
    07:00 +11°C° 0.5 mm 4 mps 736 mmHg 89%
    08:00 +12°C° 0.5 mm 4 mps 735 mmHg 84%
    09:00 +13°C° 0.5 mm 5 mps 734 mmHg 79%
    10:00 +13°C° 0.3 mm 5 mps 734 mmHg 73%
    11:00 +13°C° 0.3 mm 5 mps 734 mmHg 66%
    12:00 +13°C° 0.3 mm 6 mps 734 mmHg 60%
    13:00 +14°C° 0.1 mm 6 mps 734 mmHg 57%
    14:00 +14°C° 0.1 mm 5 mps 734 mmHg 53%
    15:00 +14°C° 0.1 mm 5 mps 734 mmHg 50%
    16:00 +13°C° 0.1 mm 5 mps 734 mmHg 57%
    17:00 +12°C° 0.1 mm 5 mps 734 mmHg 64%
    18:00 +9°C° 0.1 mm 5 mps 734 mmHg 70%
    19:00 +8°C° 0.2 mm 5 mps 735 mmHg 74%
    20:00 +6°C° 0.2 mm 5 mps 736 mmHg 79%
    21:00 +4°C° 0.2 mm 6 mps 736 mmHg 83%
    22:00 +3°C° 0.3 mm 6 mps 737 mmHg 84%
    23:00 +3°C° 0.3 mm 6 mps 738 mmHg 84%

    31 May, Thursday

    Time Temperature Precipitation Wind Pressure Humidity
    00:00 +2°C° 0.3 mm 7 mps 738 mmHg 84%
    01:00 +2°C° 0.1 mm 7 mps 739 mmHg 83%
    02:00 0°C° 0.1 mm 7 mps 740 mmHg 81%
    03:00 -1°C° 0.1 mm 7 mps 741 mmHg 80%
    04:00 -1°C° 0.1 mm 7 mps 742 mmHg 77%
    05:00 -1°C° 0.1 mm 7 mps 743 mmHg 73%
    06:00 -1°C° 0.1 mm 7 mps 743 mmHg 70%
    07:00 +1°C° 0 mm 6 mps 744 mmHg 65%
    08:00 +2°C° 0 mm 6 mps 745 mmHg 60%
    09:00 +2°C° 0 mm 6 mps 745 mmHg 54%
    10:00 +3°C° 0 mm 6 mps 746 mmHg 52%
    11:00 +4°C° 0 mm 6 mps 746 mmHg 50%
    12:00 +5°C° 0 mm 6 mps 747 mmHg 48%
    13:00 +5°C° 0 mm 6 mps 747 mmHg 47%
    14:00 +7°C° 0 mm 5 mps 748 mmHg 45%
    15:00 +7°C° 0 mm 5 mps 748 mmHg 44%
    16:00 +7°C° 0 mm 5 mps 749 mmHg 44%
    17:00 +7°C° 0 mm 5 mps 749 mmHg 44%
    18:00 +6°C° 0 mm 5 mps 750 mmHg 45%
    19:00 +5°C° 0 mm 4 mps 750 mmHg 49%
    20:00 +4°C° 0 mm 4 mps 751 mmHg 53%
    21:00 +3°C° 0 mm 3 mps 751 mmHg 58%
    22:00 +2°C° 0 mm 3 mps 751 mmHg 60%
    23:00 +2°C° 0 mm 3 mps 752 mmHg 63%

    1 June, Friday

    Time Temperature Precipitation Wind Pressure Humidity
    00:00 +1°C° 0 mm 3 mps 752 mmHg 65%
    01:00 +1°C° 0 mm 3 mps 753 mmHg 67%
    02:00 +1°C° 0 mm 3 mps 753 mmHg 68%
    03:00 0°C° 0 mm 3 mps 753 mmHg 70%
    04:00 +1°C° 0 mm 3 mps 754 mmHg 66%
    05:00 +1°C° 0 mm 3 mps 754 mmHg 62%
    06:00 +2°C° 0 mm 3 mps 754 mmHg 58%
    07:00 +1°C° 0 mm 4 mps 755 mmHg 55%
    08:00 +3°C° 0 mm 4 mps 755 mmHg 52%
    09:00 +3°C° 0 mm 4 mps 755 mmHg 49%
    10:00 +4°C° 0 mm 4 mps 755 mmHg 48%
    11:00 +4°C° 0 mm 4 mps 755 mmHg 47%
    12:00 +4°C° 0 mm 4 mps 756 mmHg 46%
    13:00 +5°C° 0 mm 4 mps 756 mmHg 45%
    14:00 +5°C° 0 mm 3 mps 756 mmHg 45%
    15:00 +5°C° 0 mm 3 mps 756 mmHg 44%
    16:00 +5°C° 0 mm 3 mps 756 mmHg 44%
    17:00 +5°C° 0 mm 3 mps 756 mmHg 45%
    18:00 +5°C° 0 mm 3 mps 756 mmHg 45%
    19:00 +6°C° 0 mm 2 mps 756 mmHg 49%
    20:00 +5°C° 0 mm 2 mps 756 mmHg 53%
    21:00 +5°C° 0 mm 1 mps 757 mmHg 57%
    22:00 +4°C° 0 mm 1 mps 757 mmHg 60%
    23:00 +4°C° 0 mm 1 mps 757 mmHg 63%

    2 June, Saturday

    Time Temperature Precipitation Wind Pressure Humidity
    00:00 +3°C° 0 mm 1 mps 757 mmHg 65%
    01:00 +3°C° 0 mm 2 mps 757 mmHg 66%
    02:00 +3°C° 0 mm 2 mps 756 mmHg 66%
    03:00 +3°C° 0 mm 2 mps 756 mmHg 66%
    04:00 +3°C° 0 mm 3 mps 756 mmHg 64%
    05:00 +4°C° 0 mm 3 mps 756 mmHg 62%
    06:00 +5°C° 0 mm 3 mps 756 mmHg 60%
    07:00 +8°C° 0 mm 3 mps 755 mmHg 56%
    08:00 +10°C° 0 mm 4 mps 755 mmHg 53%
    09:00 +11°C° 0 mm 4 mps 754 mmHg 49%
    10:00 +13°C° 0 mm 4 mps 754 mmHg 45%
    11:00 +15°C° 0 mm 4 mps 754 mmHg 41%
    12:00 +16°C° 0 mm 5 mps 753 mmHg 36%
    13:00 +16°C° 0 mm 5 mps 753 mmHg 42%
    14:00 +15°C° 0 mm 4 mps 752 mmHg 47%
    15:00 +14°C° 0 mm 4 mps 752 mmHg 53%
    16:00 +15°C° 0 mm 4 mps 751 mmHg 51%
    17:00 +17°C° 0 mm 3 mps 751 mmHg 49%
    18:00 +18°C° 0 mm 3 mps 751 mmHg 48%
    19:00 +17°C° 0 mm 3 mps 750 mmHg 51%
    20:00 +16°C° 0 mm 3 mps 750 mmHg 55%
    21:00 +13°C° 0 mm 3 mps 750 mmHg 59%
    22:00 +13°C° 0 mm 3 mps 749 mmHg 58%
    23:00 +13°C° 0 mm 3 mps 749 mmHg 56%
    Show more